Location: Drocourt
(49.0571°N, 1.7669°E)
Time: 13:16:51
(UTC+00:00)

SR - Pass Details

Date: 15 April 2024
Orbit: 579 x 859 km, 66.7° (Epoch: 28 May)

Event Time Altitude Azimuth Distance (km) Brightness Sun altitude
Rises 11:01:56 0° 324° (NW) 3,034 ? 49.6°
Reaches altitude 10° 11:04:20 10° 326° (NNW) 2,072 ? 49.7°
Maximum altitude 11:08:59 77° 53° (NE) 643 ? 49.9°
Drops below altitude 10° 11:13:19 10° 140° (SE) 1,931 ? 50.1°
Sets 11:15:29 0° 142° (SE) 2,808 ? 50.2°
